User: anonymous   Login
Location: Unspecified
(0.0000°N, 0.0000°E)
Time: 15:15:51
(UTC+00:00)
Language:

OBJECT Z - Orbit

View from above orbital plane
View from above orbital plane
View from above satellite
View from above satellite

Ground track
Ground track

The orbit data is extracted from the following two-line orbital elements,

1 43134U 18004Z   22279.71541785  .00026116  00000-0  82873-3 0  9995
2 43134  97.3626 354.6527 0006481 332.7609  27.3292 15.32637721263396
Epoch (UTC): 06 October 2022 17:10:12
Eccentricity: 0.0006481
inclination: 97.3626°
perigee height: 463 km
apogee height: 472 km
right ascension of ascending node: 354.6527°
argument of perigee: 332.7609°
revolutions per day: 15.32637721
mean anomaly at epoch: 27.3292°
orbit number at epoch: 26339

The dashed part of the orbit path shows where the satellite is in the earth's shadow,  

DLR